Regional Weather Roundup
Issued by NWS

Home | Current Version | Previous Version | Graphics & Text | Print | Product List | Glossary On
Versions: 1 2 3 4 5 6 7 8 9 10 11 12 13 14 15 16 17 18 19 20 21 22 23 24 25 26 27 28 29 30 31 32 33 34 35 36 37 38 39 40 41 42 43 44 45 46 47 48 49 50
880
ASUS43 KIND 242159
RWRIN

WEATHER ROUNDUP FOR INDIANA
NATIONAL WEATHER SERVICE INDIANAPOLIS IN
600 PM EDT SUN JUL 24 2016

NOTE: "FAIR" INDICATES FEW OR NO CLOUDS BELOW 12,000 FEET WITH NO
SIGNIFICANT WEATHER AND/OR OBSTRUCTIONS TO VISIBILITY.

* - STATION DOES NOT REPORT WEATHER SUCH AS PRECIPITATION OR FOG.

+ - STATION NOT QUALITY CONTROLLED BY THE NATIONAL WEATHER SERVICE.
    USE DATA WITH CAUTION...ESPECIALLY DEWPOINT AND RELATIVE
    HUMIDITY OBSERVATIONS.

INZ001>003-010>013-019-020-242300-
NORTHWEST INDIANA

CITY           SKY/WX    TMP DP  RH WIND       PRES   REMARKS
GARY /AIRPORT/ PTSUNNY   91 N/A N/A S10       29.88S
KNOX *+        PTSUNNY   88  68  51 SW8       29.91R
MONTICELLO +   CLOUDY    92  72  52 S13       29.92R HX  99

$$

LMZ046-743>745-242300-
SOUTHERN LAKE MICHIGAN

STATION/POSITION TIME  TEMP    WIND        PRES    WAVE
                       AIR SEA DIR/SP/G            HT
                 (UTC) (F)     (DEG/KT/KT) (MB)    (FT)
BURNS HARBOR     2110   88     210/ 12/ 20 1012.2R
MICHIGAN CITY    2100   86     180/ 11/ 15   N/A
5NW MICH CITY    2100   82 74  210/ 10/ 14   N/A     2

$$

INZ004-005-014>016-021>024-242300-
NORTH CENTRAL INDIANA

CITY           SKY/WX    TMP DP  RH WIND       PRES   REMARKS
ELKHART        CLOUDY    90  81  74 SW17      29.92S HX 108
GOSHEN         MOSUNNY   90  74  59 SW13      29.92R HX  99
SOUTH BEND     PTSUNNY   89  77  67 SW15      29.91S HX 101

$$

INZ006>009-017-018-025>027-242300-
NORTHEAST INDIANA

CITY           SKY/WX    TMP DP  RH WIND       PRES   REMARKS
ANGOLA *+        N/A     88  82  84 SW10      29.93R HX 108
FORT WAYNE     CLOUDY    90  75  61 SW13      29.94F HX 100

$$

INZ028-029-035-036-043>045-051>053-242300-
WEST CENTRAL INDIANA

CITY           SKY/WX    TMP DP  RH WIND       PRES   REMARKS
CRAWFORDSVL +  CLOUDY    88  77  71 S9        29.96S HX 100
LAFAYETTE      MOSUNNY   91  78  65 VRB6      29.92F HX 106
TERRE HAUTE    MOSUNNY   91  77  63 S8        29.95S HX 104

$$

INZ030>032-037>040-046>048-054>057-064-065-242300-
CENTRAL INDIANA

CITY           SKY/WX    TMP DP  RH WIND       PRES   REMARKS
COLUMBUS       SUNNY     88  79  74 S9        29.97F HX 102
INDIANAPOLIS   PTSUNNY   90  75  61 SW12      29.97S HX 100
-EAGLE CREEK   MOSUNNY   91  74  57 SW7       29.96S HX 100
KOKOMO *+      CLOUDY    90  73  58 SW15      29.94S HX  98
SHELBYVILLE    SUNNY     92  76  59 SW9       29.96S HX 104

$$

INZ033-034-041-042-049-050-058-059-242300-
EAST CENTRAL INDIANA

CITY           SKY/WX    TMP DP  RH WIND       PRES   REMARKS
MUNCIE         MOSUNNY   92  74  55 SW10G20   29.96F HX 101

$$

INZ060-061-067>069-081>083-085>088-242300-
SOUTHWEST INDIANA

CITY           SKY/WX    TMP DP  RH WIND       PRES   REMARKS
EVANSVILLE     MOSUNNY   91  76  61 SW9       29.96S HX 103
HUNTINGBURG *+ SUNNY     91  75  59 S7        29.97S HX 102

$$

INZ062-063-066-070>080-084-089>092-242300-
SOUTH CENTRAL AND SOUTHEAST INDIANA

CITY           SKY/WX    TMP DP  RH WIND       PRES   REMARKS
BLOOMINGTON    MOSUNNY   89  76  65 SW8       29.98S HX 100
MADISON *+     MOSUNNY   91  72  52 SW5       30.01R HX  98

$$





USA.gov is the U.S. government's official web portal to all federal, state and local government web resources and services.